Погода в Винья-дель-Мар

Чили     33°01′24″S   71°34′01″W
темп.,
°C
ветер,
м/с
пор.,
м/с
влажн.,
%
обл.,
%
осадки,
мм/ч
давл.,
гПа
погр.,
м
8 марта, пн
пн800:00+17ююв22730 0.0 101427
03:00+16ююв12710 0.0 101224
06:00+16ю22740 0.0 101225
09:00+20с11570 0.0 101392
12:00+22ссз54610 0.0 1014380
15:00+23ссз66580 0.0 1013431
18:00+20сз44670 0.0 1013357
21:00+15сз12920 0.0 101424
9 марта, вт
вт900:00+13ююв00930 0.0 101523
03:00+13ю11920 0.0 101425
06:00+12з01920 0.0 101329
09:00+16св22830 0.0 1013143
12:00+21сз43590 0.0 1013396
15:00+21сз54500 0.0 1013432
18:00+19зсз44580 0.0 1013416
21:00+13з118912 0.0 101530
10 марта, ср
ср1000:00+12вюв118930 0.0 101523
03:00+12ююв118348 0.0 101531
06:00+11юв118267 0.0 101527
09:00+15всв016962 0.0 101751
12:00+21сз424784 0.0 1017501
15:00+22зсз435192 0.0 1018490
18:00+22юз4556100 0.0 1017507
21:00+16ю3490100 0.0 101875
11 марта, чт
чт1100:00+15ююв239325 0.0 101740
03:00+14ююв229359 0.0 101527
06:00+13юв129266 0.0 101523
09:00+17вюв007933 0.0 101573
12:00+22зсз325759 0.0 1015524
15:00+25зюз554879 0.0 1014672
18:00+24ююз784394 0.0 1014602
21:00+16ю346468 0.0 101587
12 марта, пт
пт1200:00+13ю237416 0.0 101549
03:00+13ю227611 0.0 101338
06:00+12ю018163 0.0 101334
09:00+15св116442 0.0 1014109
12:00+21зсз42500 0.0 1014403
15:00+21зсз54490 0.0 1014398
18:00+19зсз43590 0.0 1014350
21:00+14з11910 0.0 101429